DW8749 Weather Reports


Display with metric or nautical units.
time (UTC)temp
F
wind
direction
speed
MPH
gust
MPH
rain 1hr
in
rain 24hr
in
rain mn
in
humidity
%
barometer
mb
20260510114508 53 33 2.0 5.0 0.00 0.00 0.00 68 1019.7
20260510114006 53 32 2.0 8.0 0.00 0.00 0.00 69 1019.7
20260510113507 53 44 4.0 8.0 0.00 0.00 0.00 69 1019.9
20260510113014 53 34 2.0 5.0 0.00 0.00 0.00 69 1019.8
20260510112511 54 345 3.0 9.0 0.00 0.00 0.00 68 1019.9
20260510112007 54 352 4.0 10.0 0.00 0.00 0.00 66 1019.5
20260510111517 54 51 5.0 10.0 0.00 0.00 0.00 66 1019.4
20260510111007 54 360 4.0 10.0 0.00 0.00 0.00 67 1019.6
20260510110508 55 329 6.0 10.0 0.00 0.00 0.00 67 1019.6
20260510110030 55 360 3.0 11.0 0.00 0.00 0.00 65 1019.3
20260510105503 55 50 5.0 13.0 0.00 0.00 0.00 65 1018.7
20260510105004 55 93 4.0 13.0 0.00 0.00 0.00 64 1018.5
20260510104513 55 134 4.0 12.0 0.00 0.00 0.00 64 1018.2
20260510104007 54 66 3.0 12.0 0.00 0.00 0.00 65 1018.1
20260510103506 54 30 8.0 14.0 0.00 0.00 0.00 66 1018.1
20260510103018 54 49 6.0 14.0 0.00 0.00 0.00 67 1018.2
20260510102508 54 42 4.0 12.0 0.00 0.00 0.00 67 1018.3
20260510102006 54 342 7.0 12.0 0.00 0.00 0.00 67 1018.3
20260510101524 55 51 8.0 13.0 0.00 0.00 0.00 67 1017.5
20260510101006 55 105 4.0 17.0 0.00 0.00 0.00 65 1017.0
20260510100507 56 98 9.0 17.0 0.00 0.00 0.00 63 1017.4
20260510100028 56 46 6.0 14.0 0.00 0.00 0.00 59 1017.5
20260510095503 56 45 5.0 15.0 0.00 0.00 0.00 58 1017.4
20260510095003 57 49 10.0 15.0 0.00 0.00 0.00 57 1017.4
20260510094525 57 72 7.0 14.0 0.00 0.00 0.00 57 1017.5
20260510094007 57 36 5.0 12.0 0.00 0.00 0.00 57 1017.6
20260510093506 57 56 5.0 14.0 0.00 0.00 0.00 56 1017.4
20260510093021 57 40 6.0 14.0 0.00 0.00 0.00 56 1017.5
20260510092507 57 63 4.0 13.0 0.00 0.00 0.00 55 1017.6
20260510092012 57 64 10.0 13.0 0.00 0.00 0.00 55 1017.6
20260510091526 57 46 9.0 17.0 0.00 0.00 0.00 55 1017.6
20260510091007 57 55 10.0 17.0 0.00 0.00 0.00 55 1017.5
20260510090509 57 36 7.0 17.0 0.00 0.00 0.00 55 1017.5
20260510090010 57 53 7.0 17.0 0.00 0.00 0.00 55 1017.8
20260510085503 57 32 5.0 15.0 0.00 0.00 0.00 56 1017.9
20260510085003 57 22 8.0 15.0 0.00 0.00 0.00 57 1017.9
20260510084517 57 333 6.0 15.0 0.00 0.00 0.00 57 1017.8
20260510084007 57 346 7.0 15.0 0.00 0.00 0.00 58 1017.8
20260510083509 58 331 8.0 14.0 0.00 0.00 0.00 59 1017.8
20260510083022 58 12 8.0 17.0 0.00 0.00 0.00 60 1017.7
20260510082506 58 352 9.0 17.0 0.00 0.00 0.00 62 1017.8
20260510082011 58 15 7.0 12.0 0.00 0.00 0.00 62 1017.8
20260510081527 58 19 7.0 14.0 0.00 0.00 0.00 63 1017.9
20260510081009 58 5 8.0 14.0 0.00 0.00 0.00 64 1018.0
20260510080011 58 351 6.0 13.0 0.00 0.00 0.00 64 1018.0
20260510075507 57 360 8.0 13.0 0.00 0.00 0.00 64 1018.0
20260510075005 57 338 7.0 12.0 0.00 0.00 0.00 65 1017.8
20260510074520 57 360 6.0 12.0 0.00 0.00 0.00 65 1017.6
20260510074006 57 331 4.0 11.0 0.00 0.00 0.00 65 1017.5
20260510073508 57 334 5.0 11.0 0.00 0.00 0.00 65 1017.4
20260510073022 57 342 3.0 9.0 0.00 0.00 0.00 64 1017.3
20260510072507 57 50 3.0 10.0 0.00 0.00 0.00 64 1017.1
20260510072010 57 23 4.0 10.0 0.00 0.00 0.00 64 1017.1
20260510071528 57 26 4.0 9.0 0.00 0.00 0.00 64 1017.0
20260510071009 58 11 4.0 12.0 0.00 0.00 0.00 64 1017.1
20260510070506 58 37 4.0 12.0 0.00 0.00 0.00 63 1017.0
20260510070016 58 31 3.0 8.0 0.00 0.00 0.00 63 1016.9
20260510065506 58 360 4.0 8.0 0.00 0.00 0.00 63 1017.0
20260510065007 58 349 3.0 12.0 0.00 0.00 0.00 62 1016.8
20260510064521 59 46 4.0 12.0 0.00 0.00 0.00 62 1016.8
20260510064012 59 51 6.0 12.0 0.00 0.00 0.00 61 1016.7
20260510063508 59 17 5.0 10.0 0.00 0.00 0.00 61 1016.6
20260510063027 59 13 4.0 10.0 0.00 0.00 0.00 61 1016.6
20260510062510 59 24 5.0 10.0 0.00 0.00 0.00 61 1016.5
20260510062010 59 13 5.0 10.0 0.00 0.00 0.00 61 1016.4
20260510061531 60 72 3.0 11.0 0.00 0.00 0.00 61 1016.1
20260510061013 60 40 6.0 11.0 0.00 0.00 0.00 61 1015.9
20260510060506 60 24 5.0 11.0 0.00 0.00 0.00 61 1015.8
20260510060039 60 28 5.0 11.0 0.00 0.00 0.00 61 1015.6
20260510055506 60 32 5.0 11.0 0.00 0.00 0.00 61 1015.6
20260510055006 61 42 4.0 10.0 0.00 0.00 0.00 60 1015.5
20260510054522 61 56 5.0 10.0 0.00 0.00 0.00 60 1015.5
20260510054008 61 45 5.0 10.0 0.00 0.00 0.00 59 1015.4
20260510053507 62 55 5.0 13.0 0.00 0.00 0.00 58 1015.4
20260510053028 62 24 6.0 13.0 0.00 0.00 0.00 58 1015.2
20260510052512 62 37 7.0 14.0 0.00 0.00 0.00 57 1015.1
20260510052009 62 55 6.0 14.0 0.00 0.00 0.00 57 1015.0
20260510051528 62 51 5.0 12.0 0.00 0.00 0.00 57 1014.9
20260510051011 62 58 5.0 11.0 0.00 0.00 0.00 57 1014.7
20260510050508 62 43 4.0 11.0 0.00 0.00 0.00 57 1014.6
20260510050021 63 51 7.0 12.0 0.00 0.00 0.00 56 1014.5
20260510045507 63 77 7.0 12.0 0.00 0.00 0.00 56 1014.5
20260510045010 63 53 6.0 11.0 0.00 0.00 0.00 57 1014.4
20260510044527 63 57 4.0 10.0 0.00 0.00 0.00 58 1014.4
20260510044012 63 61 5.0 11.0 0.00 0.00 0.00 58 1014.4
20260510043506 63 85 4.0 11.0 0.00 0.00 0.00 58 1014.3
20260510043026 63 52 4.0 12.0 0.00 0.00 0.00 59 1014.2
20260510042511 63 66 5.0 12.0 0.00 0.00 0.00 59 1014.1
20260510042010 63 57 5.0 9.0 0.00 0.00 0.00 59 1013.9
20260510041530 63 57 5.0 9.0 0.00 0.00 0.00 60 1013.9
20260510041007 63 38 3.0 11.0 0.00 0.00 0.00 60 1013.7
20260510040506 63 73 5.0 11.0 0.00 0.00 0.00 61 1013.7
20260510040024 63 36 5.0 13.0 0.00 0.00 0.00 61 1013.8
20260510035507 63 17 7.0 13.0 0.00 0.00 0.00 61 1013.9
20260510035013 63 32 9.0 16.0 0.00 0.00 0.00 61 1013.7
20260510034526 63 75 8.0 16.0 0.00 0.00 0.00 62 1013.3
20260510034010 63 56 5.0 12.0 0.00 0.00 0.00 62 1013.0
20260510033506 63 57 7.0 15.0 0.00 0.00 0.00 62 1012.8
20260510033027 64 51 6.0 15.0 0.00 0.00 0.00 62 1012.7
20260510032511 64 36 7.0 15.0 0.00 0.00 0.00 62 1012.7
20260510032006 64 32 7.0 14.0 0.00 0.00 0.00 61 1012.6
20260510031517 64 55 7.0 14.0 0.00 0.00 0.00 61 1012.5
20260510031009 64 70 7.0 14.0 0.00 0.00 0.00 61 1012.3
20260510030507 64 46 4.0 12.0 0.00 0.00 0.00 61 1012.3
20260510030003 64 74 4.0 14.0 0.00 0.00 0.00 61 1012.2
20260510025504 64 46 4.0 14.0 0.00 0.00 0.00 61 1012.0
20260510025005 64 91 6.0 13.0 0.00 0.00 0.00 61 1011.9
20260510024506 64 70 5.0 14.0 0.00 0.00 0.00 61 1011.8
20260510024003 64 112 3.0 14.0 0.00 0.00 0.00 61 1011.8
20260510023506 64 84 4.0 12.0 0.00 0.00 0.00 61 1011.5
20260510023027 64 61 4.0 14.0 0.00 0.00 0.00 61 1011.3
20260510022507 64 51 5.0 14.0 0.00 0.00 0.00 60 1011.2
20260510022008 65 76 6.0 13.0 0.00 0.00 0.00 60 1011.1
20260510021519 65 84 7.0 11.0 0.00 0.00 0.00 59 1011.1
20260510021007 65 56 5.0 12.0 0.00 0.00 0.00 59 1010.8
20260510020508 65 55 4.0 12.0 0.00 0.00 0.00 59 1010.6
20260510020004 65 71 3.0 12.0 0.00 0.00 0.00 59 1010.4
20260510015504 65 44 5.0 12.0 0.00 0.00 0.00 59 1010.2
20260510015003 66 97 5.0 11.0 0.00 0.00 0.00 59 1009.9
20260510014507 66 69 5.0 13.0 0.00 0.00 0.00 58 1009.9
20260510014006 67 78 4.0 13.0 0.00 0.00 0.00 57 1009.8
20260510013510 67 75 5.0 16.0 0.00 0.00 0.00 56 1009.7
20260510013016 68 42 5.0 16.0 0.00 0.00 0.00 54 1009.6
20260510012506 68 73 6.0 16.0 0.00 0.00 0.00 51 1009.5
20260510012007 69 48 5.0 14.0 0.00 0.00 0.00 51 1009.4
20260510011525 69 57 6.0 15.0 0.00 0.00 0.00 50 1009.5
20260510011012 70 69 6.0 15.0 0.00 0.00 0.00 50 1009.3
20260510010504 70 88 3.0 10.0 0.00 0.00 0.00 50 1009.2
20260510010011 70 56 4.0 10.0 0.00 0.00 0.00 50 1009.1
20260510005507 70 101 4.0 11.0 0.00 0.00 0.00 50 1008.8
20260510005005 70 87 4.0 16.0 0.00 0.00 0.00 50 1008.9
20260510004513 71 106 5.0 16.0 0.00 0.00 0.00 49 1008.7
20260510004004 71 40 3.0 16.0 0.00 0.00 0.00 51 1008.6
20260510003508 71 98 4.0 15.0 0.00 0.00 0.00 50 1009.0
20260510003020 71 93 7.0 15.0 0.00 0.00 0.00 1009.4
20260510002508 71 94 6.0 20.0 0.00 0.00 0.00 49 1009.4
20260510002006 71 74 9.0 23.0 0.00 0.00 0.00 49 1009.2
20260510001523 72 86 12.0 23.0 0.00 0.00 0.00 47 1009.0
20260510001009 74 69 13.0 25.0 0.00 0.00 0.00 45 1008.8
20260510000505 74 88 15.0 25.0 0.00 0.00 0.00 40 1008.7
20260510000008 75 36 12.0 21.0 0.00 0.00 0.00 40 1009.0
20260509235503 75 20 10.0 16.0 0.00 0.00 0.00 40 1009.1
20260509235008 76 47 5.0 10.0 0.00 0.00 0.00 40 1009.2
20260509234514 76 82 3.0 9.0 0.00 0.00 0.00 41 1008.8
20260509234006 77 77 1.0 14.0 0.00 0.00 0.00 38 1008.7
20260509233507 79 150 7.0 14.0 0.00 0.00 0.00 37 1008.8
20260509233022 80 161 3.0 8.0 0.00 0.00 0.00 29 1008.5
20260509232509 81 148 5.0 9.0 0.00 0.00 0.00 28 1008.0
20260509232011 81 132 5.0 9.0 0.00 0.00 0.00 24 1007.3
20260509231525 81 141 4.0 9.0 0.00 0.00 0.00 24 1006.9
20260509231004 81 118 2.0 5.0 0.00 0.00 0.00 24 1006.8
20260509230503 82 113 1.0 8.0 0.00 0.00 0.00 24 1006.8
20260509230009 82 48 2.0 8.0 0.00 0.00 0.00 24 1006.6
20260509225506 82 127 2.0 6.0 0.00 0.00 0.00 24 1006.5
20260509225007 83 131 2.0 4.0 0.00 0.00 0.00 24 1006.4
20260509224520 83 124 2.0 7.0 0.00 0.00 0.00 24 1006.5
20260509224007 83 88 3.0 9.0 0.00 0.00 0.00 24 1006.6
20260509223511 83 126 5.0 16.0 0.00 0.00 0.00 25 1006.7
20260509223026 83 137 6.0 21.0 0.00 0.00 0.00 24 1006.9
20260509222506 83 196 5.0 21.0 0.00 0.00 0.00 22 1006.8
20260509222008 84 132 6.0 10.0 0.00 0.00 0.00 21 1007.0
20260509221508 83 131 4.0 8.0 0.00 0.00 0.00 21 1007.1
20260509221003 83 140 1.0 4.0 0.00 0.00 0.00 21 1007.2
20260509220506 84 173 1.0 4.0 0.00 0.00 0.00 20 1007.3
20260509220016 84 139 1.0 7.0 0.00 0.00 0.00 20 1007.3
20260509215506 84 171 3.0 7.0 0.00 0.00 0.00 20 1007.3
20260509215006 84 184 3.0 7.0 0.00 0.00 0.00 21 1007.4
20260509214521 84 143 3.0 9.0 0.00 0.00 0.00 20 1007.4
20260509214007 84 184 4.0 9.0 0.00 0.00 0.00 20 1007.5
20260509213509 84 184 1.0 6.0 0.00 0.00 0.00 21 1007.6
20260509213024 84 204 3.0 7.0 0.00 0.00 0.00 20 1007.6
20260509212508 84 236 3.0 10.0 0.00 0.00 0.00 20 1007.7
20260509212013 84 253 5.0 15.0 0.00 0.00 0.00 20 1007.8
20260509211520 84 232 5.0 15.0 0.00 0.00 0.00 20 1007.8
20260509211006 85 121 5.0 8.0 0.00 0.00 0.00 20 1007.9
20260509210508 85 173 1.0 9.0 0.00 0.00 0.00 20 1007.9
20260509210017 85 155 2.0 14.0 0.00 0.00 0.00 20 1008.0
20260509205510 85 130 8.0 14.0 0.00 0.00 0.00 19 1008.0
20260509205011 86 155 3.0 9.0 0.00 0.00 0.00 19 1008.1
20260509204523 86 155 4.0 9.0 0.00 0.00 0.00 18 1008.1
20260509204009 86 246 3.0 15.0 0.00 0.00 0.00 19 1008.1
20260509203511 86 224 4.0 15.0 0.00 0.00 0.00 20 1008.2
20260509203039 86 238 4.0 12.0 0.00 0.00 0.00 21 1008.3
20260509202510 86 209 8.0 12.0 0.00 0.00 0.00 20 1008.3
20260509202006 86 150 4.0 10.0 0.00 0.00 0.00 20 1008.4
20260509201513 86 192 5.0 11.0 0.00 0.00 0.00 21 1008.4
20260509201007 86 214 6.0 11.0 0.00 0.00 0.00 20 1008.4
20260509200508 86 192 5.0 11.0 0.00 0.00 0.00 19 1008.5
20260509200020 86 211 4.0 15.0 0.00 0.00 0.00 20 1008.6
20260509195508 86 207 7.0 15.0 0.00 0.00 0.00 19 1008.6
20260509195010 85 188 7.0 13.0 0.00 0.00 0.00 20 1008.6
20260509194525 86 149 8.0 13.0 0.00 0.00 0.00 21 1008.7
20260509194009 86 202 5.0 15.0 0.00 0.00 0.00 22 1008.6
20260509193510 85 222 5.0 15.0 0.00 0.00 0.00 23 1008.6
20260509193027 85 148 6.0 11.0 0.00 0.00 0.00 21 1008.7
20260509192506 85 192 4.0 11.0 0.00 0.00 0.00 22 1008.8
20260509192006 84 127 5.0 11.0 0.00 0.00 0.00 21 1008.8
20260509191513 84 186 4.0 8.0 0.00 0.00 0.00 24 1008.8
20260509191011 84 212 3.0 10.0 0.00 0.00 0.00 22 1009.0
20260509190509 84 250 3.0 10.0 0.00 0.00 0.00 21 1009.1
20260509190025 84 229 5.0 10.0 0.00 0.00 0.00 23 1009.1
20260509185508 84 277 2.0 7.0 0.00 0.00 0.00 24 1009.1
20260509185013 85 153 2.0 6.0 0.00 0.00 0.00 25 1009.1
20260509184526 85 132 1.0 7.0 0.00 0.00 0.00 24 1009.3
20260509184011 84 252 2.0 9.0 0.00 0.00 0.00 27 1009.2
20260509183507 83 280 4.0 9.0 0.00 0.00 0.00 26 1009.3
20260509183033 83 131 2.0 9.0 0.00 0.00 0.00 23 1009.4
20260509182505 83 258 5.0 9.0 0.00 0.00 0.00 26 1009.6
20260509182006 83 211 1.0 5.0 0.00 0.00 0.00 27 1009.7
20260509181520 83 209 2.0 6.0 0.00 0.00 0.00 28 1009.8
20260509181004 82 229 2.0 8.0 0.00 0.00 0.00 30 1010.0
20260509180504 82 202 3.0 9.0 0.00 0.00 0.00 30 1010.1
20260509180005 81 249 1.0 9.0 0.00 0.00 0.00 30 1010.3
20260509175504 81 250 3.0 9.0 0.00 0.00 0.00 33 1010.4
20260509175003 80 240 4.0 12.0 0.00 0.00 0.00 29 1010.5
20260509174509 80 225 4.0 12.0 0.00 0.00 0.00 28 1010.6
20260509174004 80 246 3.0 10.0 0.00 0.00 0.00 30 1010.7
20260509173506 80 250 3.0 10.0 0.00 0.00 0.00 31 1010.8
20260509173016 80 236 5.0 11.0 0.00 0.00 0.00 30 1010.9
20260509172509 80 219 5.0 15.0 0.00 0.00 0.00 33 1011.0
20260509172007 79 254 7.0 15.0 0.00 0.00 0.00 31 1011.0
20260509171503 78 250 4.0 9.0 0.00 0.00 0.00 33 1011.1
20260509171002 77 197 4.0 9.0 0.00 0.00 0.00 33 1011.1
20260509170504 76 221 4.0 10.0 0.00 0.00 0.00 35 1011.2
20260509170004 76 247 4.0 12.0 0.00 0.00 0.00 36 1011.2
20260509165506 75 244 5.0 12.0 0.00 0.00 0.00 36 1011.3
20260509165003 75 203 3.0 9.0 0.00 0.00 0.00 38 1011.3
20260509164511 74 207 4.0 10.0 0.00 0.00 0.00 39 1011.4
20260509164008 74 254 3.0 10.0 0.00 0.00 0.00 40 1011.4
20260509163510 73 256 4.0 12.0 0.00 0.00 0.00 40 1011.3
20260509163023 72 267 5.0 12.0 0.00 0.00 0.00 42 1011.3
20260509162509 72 257 4.0 12.0 0.00 0.00 0.00 41 1011.2
20260509162011 71 225 6.0 14.0 0.00 0.00 0.00 42 1011.1
20260509161503 71 221 5.0 14.0 0.00 0.00 0.00 42 1011.0
20260509161004 71 238 8.0 14.0 0.00 0.00 0.00 42 1011.0
20260509160504 71 182 5.0 11.0 0.00 0.00 0.00 43 1010.9
20260509160006 70 227 6.0 10.0 0.00 0.00 0.00 44 1011.0
20260509155505 70 224 5.0 13.0 0.00 0.00 0.00 45 1011.1
20260509155008 70 221 5.0 17.0 0.00 0.00 0.00 45 1011.2
20260509154516 70 237 7.0 17.0 0.00 0.00 0.00 45 1011.3
20260509154007 69 231 3.0 10.0 0.00 0.00 0.00 45 1011.4
20260509153509 69 205 3.0 11.0 0.00 0.00 0.00 45 1011.5
20260509153024 69 229 5.0 11.0 0.00 0.00 0.00 44 1011.5
20260509152507 69 250 3.0 9.0 0.00 0.00 0.00 45 1011.6
20260509152004 69 221 3.0 10.0 0.00 0.00 0.00 45 1011.6
20260509151506 69 246 3.0 10.0 0.00 0.00 0.00 45 1011.6
20260509151004 69 231 5.0 10.0 0.00 0.00 0.00 45 1011.6
20260509150504 69 258 3.0 11.0 0.00 0.00 0.00 46 1011.6
20260509150011 69 244 3.0 10.0 0.00 0.00 0.00 45 1011.5
20260509145506 69 265 4.0 12.0 0.00 0.00 0.00 45 1011.4
20260509145009 69 246 4.0 12.0 0.00 0.00 0.00 45 1011.2
20260509144516 69 279 5.0 11.0 0.00 0.00 0.00 45 1011.2
20260509144009 68 235 5.0 11.0 0.00 0.00 0.00 46 1011.1
20260509143509 68 255 3.0 11.0 0.00 0.00 0.00 47 1011.1
20260509143028 68 253 5.0 11.0 0.00 0.00 0.00 48 1011.1
20260509142512 67 238 5.0 11.0 0.00 0.00 0.00 50 1011.2
20260509142004 66 254 3.0 11.0 0.00 0.00 0.00 50 1011.1
20260509141508 65 252 1.0 9.0 0.00 0.00 0.00 50 1011.1
20260509141006 65 227 4.0 10.0 0.00 0.00 0.00 50 1011.2
20260509140504 65 257 4.0 10.0 0.00 0.00 0.00 50 1011.3
20260509140013 65 277 4.0 9.0 0.00 0.00 0.00 51 1011.4
20260509135505 65 253 5.0 11.0 0.00 0.00 0.00 51 1011.4
20260509135008 64 244 5.0 11.0 0.00 0.00 0.00 53 1011.1
20260509134520 63 252 3.0 10.0 0.00 0.00 0.00 54 1011.1
20260509134006 62 266 5.0 10.0 0.00 0.00 0.00 54 1010.9
20260509133507 62 262 4.0 11.0 0.00 0.00 0.00 54 1010.9
20260509133025 61 240 5.0 11.0 0.00 0.00 0.00 55 1010.9
20260509132504 61 238 4.0 12.0 0.00 0.00 0.00 55 1010.8
20260509132003 60 257 4.0 12.0 0.00 0.00 0.00 55 1010.7
20260509131512 59 248 3.0 10.0 0.00 0.00 0.00 56 1010.7
20260509131006 59 225 3.0 8.0 0.00 0.00 0.00 57 1010.8
20260509130510 58 242 4.0 8.0 0.00 0.00 0.00 58 1010.8
20260509130020 57 234 3.0 8.0 0.00 0.00 0.00 60 1010.7
20260509125506 56 231 3.0 11.0 0.00 0.00 0.00 60 1010.8
20260509125008 56 247 3.0 11.0 0.00 0.00 0.00 61 1010.8
20260509124520 55 220 2.0 8.0 0.00 0.00 0.00 62 1010.7
20260509124008 54 242 3.0 7.0 0.00 0.00 0.00 63 1010.7
20260509123508 54 250 2.0 6.0 0.00 0.00 0.00 63 1010.7
20260509123005 53 229 3.0 8.0 0.00 0.00 0.00 64 1010.6
20260509122504 53 202 3.0 8.0 0.00 0.00 0.00 64 1010.6
20260509122005 52 246 2.0 7.0 0.00 0.00 0.00 65 1010.5
20260509121512 52 246 2.0 10.0 0.00 0.00 0.00 65 1010.5
20260509121007 51 270 2.0 10.0 0.00 0.00 0.00 66 1010.4
20260509120507 50 210 4.0 10.0 0.00 0.00 0.00 66 1010.4
20260509120019 50 308 3.0 8.0 0.00 0.00 0.00 66 1010.4
20260509115506 50 253 2.0 8.0 0.00 0.00 0.00 67 1010.4
20260509115009 49 215 3.0 7.0 0.00 0.00 0.00 67 1010.4